WB7TUJ Weather Reports


Display with metric or nautical units.
time (UTC)temp
F
wind
direction
speed
MPH
gust
MPH
rain 1hr
in
rain 24hr
in
rain mn
in
humidity
%
barometer
mb
20260507184549 88 92 0.0 0.0 0.00 0.00 0.00 16 967.5
20260507183050 87 184 0.0 0.0 0.00 0.00 0.00 18 967.6
20260507181545 87 107 0.0 0.0 0.00 0.00 0.00 18 967.8
20260507180049 86 90 0.0 0.0 0.00 0.00 0.00 18 968.0
20260507174541 85 205 0.0 0.0 0.00 0.00 0.00 22 968.2
20260507173036 83 167 0.0 6.0 0.00 0.00 0.00 23 968.4
20260507171535 83 190 0.0 4.0 0.00 0.00 0.00 24 968.4
20260507170036 83 65 0.0 0.0 0.00 0.00 0.00 22 968.6
20260507164532 82 65 0.0 0.0 0.00 0.00 0.00 24 968.7
20260507163031 81 65 0.0 0.0 0.00 0.00 0.00 25 968.7
20260507161529 80 65 0.0 0.0 0.00 0.00 0.00 25 968.9
20260507160025 79 65 0.0 0.0 0.00 0.00 0.00 27 969.0
20260507154522 77 65 0.0 0.0 0.00 0.00 0.00 29 969.1
20260507153017 76 65 0.0 0.0 0.00 0.00 0.00 33 969.2
20260507151516 74 65 0.0 0.0 0.00 0.00 0.00 35 969.1
20260507150015 74 40 0.0 0.0 0.00 0.00 0.00 32 969.1
20260507144514 74 38 0.0 0.0 0.00 0.00 0.00 33 969.0
20260507143010 73 37 0.0 0.0 0.00 0.00 0.00 33 969.0
20260507141508 71 37 0.0 0.0 0.00 0.00 0.00 34 968.9
20260507140007 70 37 0.0 0.0 0.00 0.00 0.00 34 968.9
20260507134507 70 32 0.0 0.0 0.00 0.00 0.00 34 968.8
20260507133006 69 24 0.0 0.0 0.00 0.00 0.00 35 968.7
20260507131505 69 350 0.0 0.0 0.00 0.00 0.00 34 968.3
20260507130007 67 19 0.0 0.0 0.00 0.00 0.00 35 968.3
20260507124504 66 19 0.0 0.0 0.00 0.00 0.00 36 968.5
20260507123002 67 19 0.0 0.0 0.00 0.00 0.00 36 968.5
20260507121501 67 19 0.0 0.0 0.00 0.00 0.00 35 968.4
20260507120001 68 19 0.0 0.0 0.00 0.00 0.00 35 968.4
20260507114606 68 19 0.0 0.0 0.00 0.00 0.00 34 968.4
20260507113102 68 271 0.0 0.0 0.00 0.00 0.00 34 968.2
20260507111558 68 267 0.0 0.0 0.00 0.00 0.00 34 968.3
20260507110055 68 261 0.0 0.0 0.00 0.00 0.00 35 968.4
20260507104554 67 261 0.0 0.0 0.00 0.00 0.00 36 968.5
20260507103054 67 261 0.0 0.0 0.00 0.00 0.00 36 968.6
20260507101550 67 261 0.0 0.0 0.00 0.00 0.00 36 968.7
20260507100047 67 261 0.0 0.0 0.00 0.00 0.00 36 968.8
20260507094547 68 261 0.0 0.0 0.00 0.00 0.00 36 969.0
20260507093043 68 261 0.0 0.0 0.00 0.00 0.00 35 969.0
20260507091541 68 261 0.0 0.0 0.00 0.00 0.00 35 969.0
20260507090042 68 261 0.0 0.0 0.00 0.00 0.00 35 969.1
20260507084536 69 261 0.0 0.0 0.00 0.00 0.00 35 969.1
20260507083038 69 261 0.0 0.0 0.00 0.00 0.00 35 969.2
20260507081532 70 261 0.0 0.0 0.00 0.00 0.00 35 969.3
20260507080030 70 261 0.0 0.0 0.00 0.00 0.00 34 969.4
20260507074530 70 261 0.0 0.0 0.00 0.00 0.00 35 969.4
20260507073026 70 261 0.0 0.0 0.00 0.00 0.00 34 969.4
20260507071523 71 261 0.0 0.0 0.00 0.00 0.00 34 969.2
20260507070020 72 261 0.0 0.0 0.00 0.00 0.00 33 969.3
20260507064520 73 261 0.0 0.0 0.00 0.00 0.00 33 969.2
20260507063019 73 261 0.0 0.0 0.00 0.00 0.00 32 969.2
20260507061519 74 261 0.0 0.0 0.00 0.00 0.00 31 969.2
20260507060022 74 261 0.0 0.0 0.00 0.00 0.00 31 969.2
20260507054518 74 261 0.0 0.0 0.00 0.00 0.00 31 969.1
20260507053018 75 261 0.0 0.0 0.00 0.00 0.00 30 969.2
20260507051517 76 261 0.0 0.0 0.00 0.00 0.00 29 969.2
20260507050016 76 261 0.0 0.0 0.00 0.00 0.00 28 969.0
20260507044514 77 261 0.0 0.0 0.00 0.00 0.00 28 968.9
20260507043013 78 261 0.0 0.0 0.00 0.00 0.00 27 968.8
20260507041512 78 261 0.0 0.0 0.00 0.00 0.00 26 968.6
20260507040013 78 261 0.0 0.0 0.00 0.00 0.00 26 968.5
20260507034512 78 261 0.0 0.0 0.00 0.00 0.00 26 968.3
20260507033009 78 261 0.0 0.0 0.00 0.00 0.00 27 968.1
20260507031509 79 261 0.0 0.0 0.00 0.00 0.00 26 968.0
20260507030011 79 261 0.0 0.0 0.00 0.00 0.00 25 967.8
20260507024508 79 261 0.0 0.0 0.00 0.00 0.00 25 967.6
20260507023007 80 261 0.0 0.0 0.00 0.00 0.00 26 967.5
20260507021511 80 261 0.0 0.0 0.00 0.00 0.00 25 967.3
20260507020007 81 261 0.0 0.0 0.00 0.00 0.00 24 967.3
20260507014507 81 257 0.0 0.0 0.00 0.00 0.00 24 967.2
20260507013004 82 232 0.0 0.0 0.00 0.00 0.00 24 967.3
20260507011504 82 275 0.0 11.0 0.00 0.00 0.00 24 967.3
20260507010003 82 51 0.0 10.0 0.00 0.00 0.00 24 967.2
20260507004502 82 200 0.0 9.0 0.00 0.00 0.00 24 967.2
20260507003003 82 207 0.0 8.0 0.00 0.00 0.00 24 967.2
20260507001501 83 236 2.0 12.0 0.00 0.00 0.00 24 967.2
20260506234603 82 193 3.0 9.0 0.00 0.00 0.00 24 967.2
20260506233056 82 264 2.0 11.0 0.00 0.00 0.00 24 967.3
20260506231555 82 205 3.0 10.0 0.00 0.00 0.00 25 967.4
20260506230054 82 285 0.0 12.0 0.00 0.00 0.00 25 967.7
20260506224552 83 314 0.0 2.0 0.00 0.00 0.00 24 967.8
20260506223048 81 191 0.0 0.0 0.00 0.00 0.00 24 968.0
20260506221546 81 270 0.0 6.0 0.00 0.00 0.00 25 968.1
20260506220057 81 265 4.0 10.0 0.00 0.00 0.00 25 968.4
20260506214547 82 287 3.0 12.0 0.00 0.00 0.00 25 968.5
20260506213044 81 301 0.0 9.0 0.00 0.00 0.00 25 968.8
20260506211541 80 220 0.0 0.0 0.00 0.00 0.00 26 969.0
20260506210039 79 213 0.0 13.0 0.00 0.00 0.00 27 969.2
20260506204539 80 276 3.0 11.0 0.00 0.00 0.00 26 969.5
20260506203101 79 297 0.0 0.0 0.00 0.00 0.00 27 969.6
20260506201535 78 263 1.0 13.0 0.00 0.00 0.00 27 969.7
20260506200044 78 355 1.0 9.0 0.00 0.00 0.00 27 969.9
20260506194530 77 202 0.0 11.0 0.00 0.00 0.00 29 970.0
20260506193028 77 275 4.0 12.0 0.00 0.00 0.00 28 970.2
20260506191527 76 103 0.0 9.0 0.00 0.00 0.00 29 970.3
20260506190034 77 209 3.0 11.0 0.00 0.00 0.00 30 970.5